When you browse on this site, cookies collect data to enhance your experience and personalize the content and advertising you see.
Visit our Privacy Policy to learn more. By continuing to use the site, you agree to this use of cookies and data.
  • en France
  • Liste des pays
  • À 7 jours
  • Température de l'eau
  • Carte satellitaire
  • Carte météo
  • Widgets météo
  • user-avatar
    Se connecter

    Météo par heure à Buraydah

    Ce jour, 17 Juillet, Mercredi

    Heure Température Précipitation Vent Pression Humidité
    00:00 +35°C° 0 mm 4 m/s 701 mmHg 12%
    01:00 +34°C° 0 mm 4 m/s 700 mmHg 13%
    02:00 +33°C° 0 mm 4 m/s 700 mmHg 13%
    03:00 +32°C° 0 mm 4 m/s 700 mmHg 15%
    04:00 +32°C° 0 mm 4 m/s 701 mmHg 15%
    05:00 +32°C° 0 mm 4 m/s 701 mmHg 16%
    06:00 +30°C° 0 mm 4 m/s 702 mmHg 17%
    07:00 +33°C° 0 mm 4 m/s 702 mmHg 15%
    08:00 +36°C° 0 mm 5 m/s 703 mmHg 13%
    09:00 +39°C° 0 mm 5 m/s 703 mmHg 11%
    10:00 +40°C° 0 mm 5 m/s 703 mmHg 10%
    11:00 +42°C° 0 mm 5 m/s 703 mmHg 8%
    12:00 +43°C° 0 mm 4 m/s 703 mmHg 7%
    13:00 +45°C° 0 mm 5 m/s 702 mmHg 7%
    14:00 +45°C° 0 mm 5 m/s 702 mmHg 7%
    15:00 +46°C° 0 mm 6 m/s 701 mmHg 7%
    16:00 +45°C° 0 mm 6 m/s 701 mmHg 7%
    17:00 +45°C° 0 mm 6 m/s 701 mmHg 7%
    18:00 +44°C° 0 mm 6 m/s 701 mmHg 7%
    19:00 +41°C° 0 mm 5 m/s 701 mmHg 8%
    20:00 +39°C° 0 mm 5 m/s 701 mmHg 9%
    21:00 +36°C° 0 mm 5 m/s 702 mmHg 11%
    22:00 +36°C° 0 mm 5 m/s 702 mmHg 12%
    23:00 +35°C° 0 mm 5 m/s 702 mmHg 12%

    Demain, 18 Juillet, Jeudi

    Heure Température Précipitation Vent Pression Humidité
    00:00 +34°C° 0 mm 5 m/s 702 mmHg 13%
    01:00 +33°C° 0 mm 4 m/s 701 mmHg 15%
    02:00 +31°C° 0 mm 3 m/s 701 mmHg 16%
    03:00 +30°C° 0 mm 2 m/s 700 mmHg 17%
    04:00 +30°C° 0 mm 2 m/s 701 mmHg 18%
    05:00 +29°C° 0 mm 1 m/s 701 mmHg 18%
    06:00 +29°C° 0 mm 1 m/s 701 mmHg 19%
    07:00 +32°C° 0 mm 1 m/s 702 mmHg 16%
    08:00 +36°C° 0 mm 2 m/s 703 mmHg 13%
    09:00 +40°C° 0 mm 2 m/s 703 mmHg 11%
    10:00 +42°C° 0 mm 4 m/s 703 mmHg 10%
    11:00 +45°C° 0 mm 6 m/s 703 mmHg 9%
    12:00 +46°C° 0 mm 7 m/s 703 mmHg 8%
    13:00 +47°C° 0 mm 7 m/s 703 mmHg 8%
    14:00 +47°C° 0 mm 7 m/s 702 mmHg 7%
    15:00 +47°C° 0 mm 7 m/s 702 mmHg 7%
    16:00 +47°C° 0 mm 7 m/s 701 mmHg 7%
    17:00 +46°C° 0 mm 7 m/s 701 mmHg 7%
    18:00 +45°C° 0 mm 6 m/s 701 mmHg 7%
    19:00 +42°C° 0 mm 5 m/s 701 mmHg 8%
    20:00 +40°C° 0 mm 5 m/s 702 mmHg 10%
    21:00 +37°C° 0 mm 4 m/s 702 mmHg 11%
    22:00 +36°C° 0 mm 4 m/s 702 mmHg 12%
    23:00 +36°C° 0 mm 4 m/s 702 mmHg 13%

    Après-demain, 19 Juillet, Vendredi

    Heure Température Précipitation Vent Pression Humidité
    00:00 +35°C° 0 mm 4 m/s 701 mmHg 14%
    01:00 +34°C° 0 mm 3 m/s 701 mmHg 15%
    02:00 +33°C° 0 mm 3 m/s 701 mmHg 16%
    03:00 +31°C° 0 mm 2 m/s 701 mmHg 17%
    04:00 +31°C° 0 mm 2 m/s 701 mmHg 17%
    05:00 +31°C° 0 mm 2 m/s 701 mmHg 18%
    06:00 +31°C° 0 mm 2 m/s 701 mmHg 18%
    07:00 +35°C° 0 mm 3 m/s 702 mmHg 16%
    08:00 +37°C° 0 mm 5 m/s 702 mmHg 13%
    09:00 +41°C° 0 mm 6 m/s 703 mmHg 11%
    10:00 +44°C° 0 mm 6 m/s 703 mmHg 10%
    11:00 +45°C° 0 mm 6 m/s 703 mmHg 10%
    12:00 +47°C° 0 mm 6 m/s 703 mmHg 9%
    13:00 +47°C° 0 mm 7 m/s 702 mmHg 8%
    14:00 +49°C° 0 mm 7 m/s 701 mmHg 8%
    15:00 +49°C° 0 mm 8 m/s 701 mmHg 8%
    16:00 +47°C° 0 mm 7 m/s 701 mmHg 8%
    17:00 +46°C° 0 mm 7 m/s 701 mmHg 9%
    18:00 +46°C° 0 mm 7 m/s 701 mmHg 9%
    19:00 +44°C° 0 mm 6 m/s 701 mmHg 10%
    20:00 +41°C° 0 mm 6 m/s 701 mmHg 12%
    21:00 +39°C° 0 mm 5 m/s 701 mmHg 13%
    22:00 +37°C° 0 mm 5 m/s 701 mmHg 14%
    23:00 +36°C° 0 mm 5 m/s 701 mmHg 14%

    20 Juillet, Samedi

    Heure Température Précipitation Vent Pression Humidité
    00:00 +35°C° 0 mm 5 m/s 701 mmHg 15%
    01:00 +34°C° 0 mm 4 m/s 701 mmHg 15%
    02:00 +33°C° 0 mm 4 m/s 701 mmHg 16%
    03:00 +32°C° 0 mm 4 m/s 700 mmHg 16%
    04:00 +31°C° 0 mm 3 m/s 701 mmHg 16%
    05:00 +30°C° 0 mm 3 m/s 701 mmHg 15%
    06:00 +30°C° 0 mm 3 m/s 701 mmHg 14%
    07:00 +33°C° 0 mm 4 m/s 702 mmHg 11%
    08:00 +36°C° 0 mm 4 m/s 702 mmHg 9%
    09:00 +40°C° 0 mm 5 m/s 703 mmHg 7%
    10:00 +41°C° 0 mm 5 m/s 703 mmHg 6%
    11:00 +43°C° 0 mm 5 m/s 703 mmHg 6%
    12:00 +45°C° 0 mm 6 m/s 703 mmHg 6%
    13:00 +46°C° 0 mm 6 m/s 702 mmHg 6%
    14:00 +47°C° 0 mm 6 m/s 702 mmHg 5%
    15:00 +47°C° 0 mm 6 m/s 702 mmHg 5%
    16:00 +47°C° 0 mm 6 m/s 701 mmHg 5%
    17:00 +46°C° 0 mm 6 m/s 701 mmHg 6%
    18:00 +45°C° 0 mm 6 m/s 701 mmHg 6%
    19:00 +42°C° 0 mm 5 m/s 701 mmHg 7%
    20:00 +40°C° 0 mm 5 m/s 701 mmHg 9%
    21:00 +37°C° 0 mm 5 m/s 702 mmHg 10%
    22:00 +36°C° 0 mm 4 m/s 701 mmHg 11%
    23:00 +35°C° 0 mm 4 m/s 701 mmHg 12%

    21 Juillet, Dimanche

    Heure Température Précipitation Vent Pression Humidité
    00:00 +35°C° 0 mm 4 m/s 701 mmHg 13%
    01:00 +34°C° 0 mm 4 m/s 701 mmHg 14%
    02:00 +34°C° 0 mm 4 m/s 701 mmHg 15%
    03:00 +33°C° 0 mm 4 m/s 700 mmHg 16%
    04:00 +33°C° 0 mm 4 m/s 701 mmHg 16%
    05:00 +32°C° 0 mm 4 m/s 701 mmHg 17%
    06:00 +32°C° 0 mm 4 m/s 701 mmHg 18%
    07:00 +35°C° 0 mm 4 m/s 702 mmHg 16%
    08:00 +39°C° 0 mm 5 m/s 702 mmHg 13%
    09:00 +42°C° 0 mm 6 m/s 702 mmHg 11%
    10:00 +43°C° 0 mm 5 m/s 702 mmHg 10%
    11:00 +46°C° 0 mm 5 m/s 702 mmHg 8%
    12:00 +47°C° 0 mm 5 m/s 702 mmHg 7%
    13:00 +48°C° 0 mm 5 m/s 701 mmHg 6%
    14:00 +49°C° 0 mm 5 m/s 701 mmHg 6%
    15:00 +49°C° 0 mm 6 m/s 701 mmHg 6%
    16:00 +49°C° 0 mm 5 m/s 700 mmHg 6%
    17:00 +48°C° 0 mm 5 m/s 700 mmHg 6%
    18:00 +48°C° 0 mm 4 m/s 700 mmHg 6%
    19:00 +44°C° 0 mm 4 m/s 700 mmHg 7%
    20:00 +42°C° 0 mm 4 m/s 700 mmHg 8%
    21:00 +40°C° 0 mm 4 m/s 700 mmHg 9%
    22:00 +38°C° 0 mm 4 m/s 700 mmHg 9%
    23:00 +37°C° 0 mm 4 m/s 700 mmHg 10%

    22 Juillet, Lundi

    Heure Température Précipitation Vent Pression Humidité
    00:00 +36°C° 0 mm 4 m/s 700 mmHg 11%
    01:00 +36°C° 0 mm 4 m/s 700 mmHg 12%
    02:00 +35°C° 0 mm 4 m/s 699 mmHg 13%
    03:00 +34°C° 0 mm 4 m/s 699 mmHg 14%
    04:00 +34°C° 0 mm 4 m/s 699 mmHg 15%
    05:00 +34°C° 0 mm 4 m/s 700 mmHg 16%
    06:00 +33°C° 0 mm 4 m/s 700 mmHg 17%
    07:00 +36°C° 0 mm 5 m/s 700 mmHg 15%
    08:00 +40°C° 0 mm 6 m/s 701 mmHg 13%
    09:00 +44°C° 0 mm 8 m/s 701 mmHg 10%
    10:00 +46°C° 0 mm 7 m/s 701 mmHg 9%
    11:00 +49°C° 0 mm 7 m/s 701 mmHg 8%
    12:00 +51°C° 0 mm 6 m/s 701 mmHg 7%
    13:00 +51°C° 0 mm 6 m/s 700 mmHg 7%
    14:00 +52°C° 0 mm 6 m/s 700 mmHg 6%
    15:00 +52°C° 0 mm 5 m/s 699 mmHg 6%
    16:00 +50°C° 0 mm 5 m/s 699 mmHg 6%
    17:00 +50°C° 0 mm 5 m/s 699 mmHg 6%
    18:00 +49°C° 0 mm 4 m/s 699 mmHg 6%
    19:00 +47°C° 0 mm 5 m/s 699 mmHg 7%
    20:00 +43°C° 0 mm 5 m/s 699 mmHg 7%
    21:00 +41°C° 0 mm 5 m/s 699 mmHg 8%
    22:00 +40°C° 0 mm 5 m/s 699 mmHg 9%
    23:00 +39°C° 0 mm 5 m/s 699 mmHg 10%
    Voir plus